Weather History for Burlington, IA

Change the Weather History Date:

Monday, December 24, 2012

  Actual Average Record
Temperature  
Mean Temperature 23 °F 27 °F  
Max Temperature 26 °F 35 °F 61 °F (1955)
Min Temperature 19 °F 19 °F -20 °F (1983)
Degree Days  
Heating Degree Days 42 38  
Month to date heating degree days 666 842  
Since 1 July heating degree days 1905 1915  
Cooling Degree Days 0 0  
Month to date cooling degree days 0 0  
Year to date cooling degree days 1287 1207  
Moisture  
Dew Point 19 °F    
Average Humidity 84    
Maximum Humidity 96    
Minimum Humidity 71    
Precipitation  
Precipitation T in 0.06 in 0.41 in (1997)
Month to date precipitation 1.43 1.71  
Year to date precipitation 23.82 38.10  
Sea Level Pressure  
Sea Level Pressure 29.99 in    
Wind  
Wind Speed 10 mph (NW)    
Max Wind Speed 16 mph    
Max Gust Speed 23 mph    
Visibility 4 miles    
Events Fog , Snow    
T = Trace of Precipitation, MM = Missing Value Source: NWS Daily Summary

Daily Weather History Graph

Daily Weather History Graph

Search for Another Location

Airport:

Trip Planner

Search our weather history database for the weather conditions in past years. The results will help you decide how hot, cold, wet, or windy it might be!

Date:

Astronomy

Dec. 24, 2012 Rise Set
Actual Time 7:26 AM CST 4:42 PM CST
Civil Twilight 6:55 AM CST 5:13 PM CST
Nautical Twilight 6:21 AM CST 5:47 PM CST
Astronomical Twilight 5:47 AM CST 6:20 PM CST
Moon 2:09 PM CST (12/24) 4:04 AM CST (12/24)
Length of Visible Light 10h 17m
Length of Day
9h 15m
Waxing Gibbous, 88% of the Moon is Illuminated
Dec 24
Waxing Gibbous
Dec 28
Full
Jan 4
Last Quarter
Jan 11
New
Jan 18
First Quarter

Hourly Weather History & Observations

Time (CST) Temp. Windchill Dew Point Humidity Pressure Visibility Wind Dir Wind Speed Gust Speed Precip Events Conditions
12:00 AM 24.8 °F 15.3 °F 23.0 °F 93% 29.91 in 5.0 mi NE 9.2 mph - N/A   Partly Cloudy
12:21 AM 24.8 °F 16.1 °F 23.0 °F 93% 29.89 in 5.0 mi ENE 8.1 mph - N/A   Scattered Clouds
12:27 AM 24.8 °F 16.9 °F 23.0 °F 93% 29.88 in 5.0 mi ENE 6.9 mph - N/A   Mostly Cloudy
12:40 AM 24.8 °F 16.9 °F 23.0 °F 93% 29.88 in 5.0 mi NE 6.9 mph - N/A   Scattered Clouds
12:53 AM 25.0 °F 18.1 °F 23.0 °F 92% 29.91 in 5.0 mi NE 5.8 mph - N/A   Scattered Clouds
1:05 AM 26.6 °F 21.2 °F 24.8 °F 93% 29.89 in 5.0 mi NNE 4.6 mph - N/A   Mostly Cloudy
1:37 AM 26.6 °F 20.0 °F 24.8 °F 93% 29.89 in 5.0 mi North 5.8 mph - N/A   Overcast
1:53 AM 26.1 °F 19.4 °F 24.1 °F 92% 29.91 in 5.0 mi NNW 5.8 mph - N/A   Overcast
2:53 AM 26.1 °F 16.2 °F 24.1 °F 92% 29.94 in 5.0 mi NNW 10.4 mph - N/A   Overcast
3:53 AM 26.1 °F 18.4 °F 24.1 °F 92% 29.91 in 5.0 mi North 6.9 mph - N/A   Overcast
4:53 AM 26.1 °F 18.4 °F 24.1 °F 92% 29.92 in 4.0 mi NNW 6.9 mph - N/A   Overcast
5:53 AM 26.1 °F 19.4 °F 24.1 °F 92% 29.92 in 4.0 mi NW 5.8 mph - N/A   Overcast
6:53 AM 25.0 °F 16.3 °F 23.0 °F 92% 29.94 in 3.0 mi NW 8.1 mph - N/A   Overcast
7:09 AM 24.8 °F 15.3 °F 23.0 °F 93% 29.92 in 2.5 mi NW 9.2 mph - N/A   Overcast
7:29 AM 24.8 °F 14.0 °F 23.0 °F 93% 29.93 in 2.0 mi NW 11.5 mph - N/A   Overcast
7:39 AM 24.8 °F 13.4 °F 23.0 °F 93% 29.93 in 1.5 mi NW 12.7 mph 20.7 mph N/A   Overcast
7:53 AM 24.1 °F 13.1 °F 23.0 °F 96% 29.97 in 0.5 mi NNW 11.5 mph 20.7 mph N/A Fog Light Freezing Fog
8:15 AM 23.0 °F 11.7 °F 21.2 °F 93% 29.94 in 0.2 mi NW 11.5 mph - N/A Fog Light Freezing Fog
8:23 AM 23.0 °F 11.7 °F 21.2 °F 93% 29.95 in 0.5 mi NW 11.5 mph - N/A Fog Light Freezing Fog
8:53 AM 23.0 °F 11.1 °F 21.2 °F 93% 29.96 in 1.0 mi WNW 12.7 mph 20.7 mph N/A   Overcast
9:22 AM 21.2 °F 8.9 °F 19.4 °F 93% 29.97 in 2.0 mi NW 12.7 mph 20.7 mph N/A   Overcast
9:31 AM 21.2 °F 8.9 °F 19.4 °F 93% 29.97 in 2.5 mi NW 12.7 mph - N/A   Overcast
9:53 AM 21.0 °F 8.6 °F 19.9 °F 96% 30.00 in 2.5 mi NNW 12.7 mph - N/A   Overcast
10:37 AM 21.2 °F 11.7 °F 17.6 °F 86% 29.97 in 3.0 mi NNW 8.1 mph - N/A   Overcast
10:53 AM 21.0 °F 9.9 °F 18.0 °F 88% 30.01 in 3.0 mi NW 10.4 mph - N/A   Overcast
11:53 AM 21.0 °F 9.3 °F 17.1 °F 85% 30.01 in 2.0 mi WNW 11.5 mph - N/A   Overcast
12:03 PM 21.2 °F 11.7 °F 17.6 °F 86% 29.98 in 2.0 mi WNW 8.1 mph - N/A   Overcast
12:10 PM 21.2 °F 10.9 °F 17.6 °F 86% 29.98 in 1.8 mi West 9.2 mph - N/A   Overcast
12:23 PM 21.2 °F 10.9 °F 17.6 °F 86% 29.97 in 2.0 mi WNW 9.2 mph - N/A   Overcast
12:33 PM 21.2 °F 8.9 °F 17.6 °F 86% 29.97 in 2.5 mi WNW 12.7 mph 17.3 mph N/A   Overcast
12:50 PM 21.2 °F 10.1 °F 17.6 °F 86% 29.98 in 3.0 mi WNW 10.4 mph - N/A   Haze
12:53 PM 21.9 °F 9.8 °F 17.1 °F 82% 30.01 in 3.0 mi WNW 12.7 mph 19.6 mph N/A   Haze
12:59 PM 21.2 °F 8.9 °F 17.6 °F 86% 29.98 in 2.5 mi WNW 12.7 mph - N/A   Haze
1:28 PM 21.2 °F 8.3 °F 15.8 °F 80% 29.98 in 1.8 mi WNW 13.8 mph 19.6 mph 0.00 in Snow Light Snow
1:46 PM 21.2 °F 8.3 °F 15.8 °F 80% 29.99 in 2.0 mi WNW 13.8 mph 20.7 mph 0.00 in Snow Light Snow
1:53 PM 21.0 °F 8.6 °F 15.1 °F 78% 30.01 in 1.8 mi WNW 12.7 mph - 0.00 in Snow Light Snow
2:53 PM 21.0 °F 8.1 °F 14.0 °F 74% 30.02 in 2.0 mi NW 13.8 mph 20.7 mph 0.00 in Snow Light Snow
3:14 PM 19.4 °F 8.6 °F 14.0 °F 80% 30.00 in 4.0 mi WNW 9.2 mph - 0.00 in Snow Light Snow
3:53 PM 19.9 °F 7.3 °F 12.9 °F 74% 30.05 in 4.0 mi NW 12.7 mph 20.7 mph 0.00 in Snow Light Snow
4:16 PM 19.4 °F 7.2 °F 14.0 °F 80% 30.03 in 2.5 mi NW 11.5 mph - 0.00 in Snow Light Snow
4:41 PM 19.4 °F 7.9 °F 14.0 °F 80% 30.04 in 3.0 mi NW 10.4 mph - 0.00 in Snow Light Snow
4:53 PM 19.0 °F 7.5 °F 14.0 °F 81% 30.07 in 4.0 mi NW 10.4 mph - 0.00 in Snow Light Snow
5:53 PM 19.9 °F 10.1 °F 14.0 °F 78% 30.10 in 9.0 mi WNW 8.1 mph - 0.00 in   Overcast
6:53 PM 19.9 °F 11.1 °F 14.0 °F 78% 30.13 in 8.0 mi WNW 6.9 mph - N/A   Overcast
7:53 PM 19.9 °F 11.1 °F 16.0 °F 85% 30.14 in 9.0 mi NW 6.9 mph - N/A   Overcast
8:53 PM 21.0 °F 12.4 °F 17.1 °F 85% 30.15 in 9.0 mi NW 6.9 mph - N/A   Overcast
9:53 PM 21.9 °F 11.7 °F 18.0 °F 85% 30.15 in 7.0 mi NNW 9.2 mph - N/A   Overcast
10:40 PM 23.0 °F 15.8 °F 19.4 °F 86% 30.14 in 8.0 mi NNW 5.8 mph - N/A   Overcast
10:53 PM 23.0 °F 15.8 °F 19.9 °F 88% 30.17 in 9.0 mi North 5.8 mph - N/A   Overcast
11:53 PM 24.1 °F 12.5 °F 19.9 °F 84% 30.17 in 9.0 mi North 12.7 mph - N/A   Overcast